Yakima, WA
on Monday, February 25, 2013

Monday
Previous Day Next Day
Daily Summary
 ActualAverageRecord
Temperature
Mean Temperature °F 38°F  
Max Temperature 54°F 50°F 67°F (1986)
Min Temperature 27°F 27°F 3°F (1993)
Degree Days
Heating Degree Days 24 27  
Month to date heating degree days 621 730  
Since 1 July heating degree days 3890 4448  
Cooling Degree Days 0 0  
Month to date cooling degree days 0 0  
Year to date cooling degree days 0 0  
Moisture
Dew Point 23°F   
Average Humidity 52    
Maximum Humidity 78    
Minimum Humidity 26    
Precipitation
Precipitation 0.00 in 0.03 in 0.44 in (2004)
Month to date precipitation T 0.70  
Year to date precipitation 0.10 1.84  
Snow
Snow 0.00 in 0.10 in T in (2007)
Month to date snowfall 0.0 2.4  
Year to date snowfall 1.1 7.7  
Since 1 July snowfall 15.3 20.7  
Snow Depth 0.00 in   
Wind
Wind Speed 10 mph   
Max Wind Speed 33 mph   
Max Gust Speed 41 mph   
Visibility 10 miles   
Events     

Key: T is trace of precipitation, MM is missing value
Source: NWS Daily Summary
Time(PST)TemperatureDew PointHumidity Pressure Visibility Wind DirectionWind SpeedGust SpeedPrecipitationEvents Conditions
12:53 AM 33.1°F 26.1°F 75% 30.01 in 10.0 miles Calm Calm - N/A   Overcast
1:53 AM 34.0°F 26.1°F 73% 29.97 in 10.0 miles Calm Calm - N/A   Overcast
2:53 AM 33.1°F 26.1°F 75% 29.95 in 10.0 miles West 4.6 mph - N/A   Mostly Cloudy
3:53 AM 35.1°F 27.0°F 72% 29.94 in 10.0 miles NW 5.8 mph - N/A   Overcast
4:53 AM 34.0°F 27.0°F 75% 29.94 in 10.0 miles SE 4.6 mph - N/A   Mostly Cloudy
5:53 AM 30.0°F 25.0°F 82% 29.95 in 10.0 miles WNW 6.9 mph - N/A   Clear
6:53 AM 30.0°F 25.0°F 82% 29.98 in 10.0 miles West 6.9 mph - N/A   Partly Cloudy
7:53 AM 35.1°F 27.0°F 72% 29.98 in 10.0 miles Calm Calm - N/A   Partly Cloudy
8:53 AM 39.9°F 28.0°F 63% 30.00 in 10.0 miles ENE 3.5 mph - N/A   Partly Cloudy
9:53 AM 48.9°F 28.9°F 46% 29.99 in 10.0 miles Calm Calm - N/A   Scattered Clouds
10:53 AM 52.0°F 25.0°F 35% 29.99 in 10.0 miles WSW 17.3 mph 23.0 mph N/A   Scattered Clouds
11:53 AM 52.0°F 23.0°F 32% 30.00 in 10.0 miles West 26.5 mph 36.8 mph N/A   Scattered Clouds
12:53 PM 53.1°F 19.9°F 27% 30.00 in 10.0 miles West 20.7 mph 34.5 mph N/A   Scattered Clouds
1:53 PM 52.0°F 18.0°F 26% 30.00 in 10.0 miles West 23.0 mph 36.8 mph N/A   Scattered Clouds
2:53 PM 52.0°F 18.0°F 26% 30.01 in 10.0 miles West 28.8 mph 35.7 mph N/A   Clear
3:53 PM 50.0°F 19.9°F 31% 30.07 in 10.0 miles WNW 15.0 mph 25.3 mph N/A   Clear
4:53 PM 46.9°F 19.9°F 34% 30.08 in 10.0 miles WNW 21.9 mph 33.4 mph N/A   Clear
5:53 PM 44.1°F 19.0°F 37% 30.11 in 10.0 miles West 16.1 mph 28.8 mph N/A   Clear
6:53 PM 39.0°F 19.9°F 46% 30.14 in 10.0 miles West 12.7 mph - N/A   Clear
7:53 PM 39.0°F 19.9°F 46% 30.16 in 10.0 miles WNW 10.4 mph - N/A   Clear
8:53 PM 42.1°F 19.9°F 41% 30.17 in 10.0 miles WNW 17.3 mph - N/A   Clear
9:53 PM 35.1°F 19.0°F 52% 30.19 in 10.0 miles West 4.6 mph - N/A   Clear
10:53 PM 30.9°F 18.0°F 59% 30.21 in 10.0 miles Calm Calm - N/A   Clear
11:53 PM 30.9°F 19.0°F 61% 30.22 in 10.0 miles North 3.5 mph - N/A   Clear
Moon Phase
Feb. 25 Feb. 25 Mar. 04 Mar. 11 Mar. 19
Sunrise:06:48 AM (PST) Moon Rise:06:05 PM (PST)
Sunset:05:42 PM (PST) Moon Set:06:18 AM (PST)

Copyright © 2014 The Weather Underground, Inc.